Location: East Arcadia
(34.1056°N, 118.0176°W)
Time: 01:04:30
(UTC+00:00)

Cosmos 1110 Rocket - Pass Details

Date: 01 April 2023
Orbit: 751 x 780 km, 74.0° (Epoch: 08 June)

Event Time Altitude Azimuth Distance (km) Brightness Sun altitude
Rises 13:05:58 0° 333° (NNW) 3,210 7.1 -7.7°
Reaches altitude 10° 13:08:28 10° 326° (NW) 2,284 6.2 -7.2°
Maximum altitude 13:13:13 38° 259° (W) 1,145 4.5 -6.2°
Drops below altitude 10° 13:17:59 10° 192° (SSW) 2,288 6.3 -5.3°
Sets 13:20:29 0° 184° (S) 3,214 7.1 -4.7°
